Location: Unspecified
(41.1637°N, 24.2901°E)
Time: 15:39:29
(UTC+01:00)

ISS - Pass Details

Date: 19 January 2021
Orbit: 418 x 421 km, 51.6° (Epoch: 27 January)

Event Time Altitude Azimuth Distance (km) Brightness Sun altitude
Rises 17:50:21 0° 227° (SW) 2,357 1.1 -16.2°
Reaches altitude 10° 17:52:27 10° 225° (SW) 1,497 -0.1 -16.5°
Maximum altitude 17:55:47 69° 142° (SE) 453 -3.8 -17.2°
Enters shadow 17:56:29 50° 79° (E) 541 -3.7 -17.3°
